Atlantic City, NJ

12:13 PM EDT on July 23, 2017 (GMT -0400)
Atlantic City International

Weather History for KACY - November, 2013

Change the Weather History Date:

Tuesday, November 12, 2013

  Actual Average Record
Temperature  
Mean Temperature 40 °F 48 °F  
Max Temperature 50 °F 58 °F 75 °F (1912)
Min Temperature 29 °F 38 °F 20 °F (2001)
Degree Days  
Heating Degree Days 25 17  
Month to date heating degree days 202 185  
Since 1 July heating degree days 567 543  
Cooling Degree Days 0 0  
Month to date cooling degree days 0 0  
Year to date cooling degree days 1088 1054  
Moisture  
Dew Point 27 °F    
Average Humidity 57    
Maximum Humidity 70    
Minimum Humidity 43    
Precipitation  
Precipitation 0.01 in 0.10 in 1.73 in (2006)
Month to date precipitation 0.47 1.30  
Year to date precipitation 37.98 36.09  
Snow  
Snow T in 0.00 in T in (2013)
Month to date snowfall T 0.0  
Since 1 July snowfall T 0.0  
Since 1 September snowfall T 0.0  
Snow Depth 0.00 in    
Sea Level Pressure  
Sea Level Pressure 30.15 in    
Wind  
Wind Speed 14 mph (NW)    
Max Wind Speed 25 mph    
Max Gust Speed 32 mph    
Visibility 9 miles    
Events Rain , Snow    
T = Trace of Precipitation, MM = Missing Value Source: NWS Daily Summary

Daily Weather History Graph

Daily Weather History Graph

Search for Another Location

Airport or City:

Trip Planner

Search our weather history database for the weather conditions in past years. The results will help you decide how hot, cold, wet, or windy it might be!

Date:

Astronomy

Nov. 12, 2013 Rise Set
Actual Time 6:39 AM EST 4:45 PM EST
Civil Twilight 6:10 AM EST 5:14 PM EST
Nautical Twilight 5:38 AM EST 5:46 PM EST
Astronomical Twilight 5:06 AM EST 6:18 PM EST
Moon 1:57 PM EST (11/12) 1:27 AM EST (11/12)
Length of Visible Light 11h 03m
Length of Day
10h 06m
Waxing Gibbous, 76% of the Moon is Illuminated
Nov 12
Waxing Gibbous
Nov 17
Full
Nov 25
Last Quarter
Dec 2
New
Dec 9
First Quarter

Hourly Weather History & Observations

Time (EST) Temp. Windchill Dew Point Humidity Pressure Visibility Wind Dir Wind Speed Gust Speed Precip Events Conditions
12:54 AM 50.0 °F - 37.9 °F 63% 30.00 in 10.0 mi SW 12.7 mph 20.7 mph N/A   Overcast
1:54 AM 50.0 °F - 37.9 °F 63% 29.99 in 10.0 mi SW 11.5 mph - N/A   Overcast
2:54 AM 50.0 °F - 37.9 °F 63% 29.98 in 10.0 mi WSW 6.9 mph - N/A   Scattered Clouds
3:54 AM 50.0 °F - 36.0 °F 59% 29.97 in 10.0 mi SW 6.9 mph - N/A   Overcast
4:54 AM 50.0 °F - 36.0 °F 59% 29.97 in 10.0 mi WSW 5.8 mph - N/A   Overcast
5:54 AM 50.0 °F - 36.0 °F 59% 29.99 in 10.0 mi WSW 8.1 mph - N/A   Overcast
6:54 AM 48.0 °F - 37.0 °F 66% 30.01 in 10.0 mi WNW 6.9 mph - 0.00 in Rain Light Rain
7:54 AM 41.0 °F 30.9 °F 33.1 °F 73% 30.07 in 10.0 mi NNW 24.2 mph 32.2 mph 0.00 in   Overcast
8:39 AM 39.0 °F 30.3 °F 32.0 °F 76% 30.11 in 10.0 mi North 16.1 mph - N/A   Overcast
8:54 AM 37.9 °F 28.5 °F 32.0 °F 79% 30.12 in 10.0 mi North 17.3 mph 26.5 mph 0.00 in Rain Light Rain
9:54 AM 35.1 °F 24.5 °F 30.0 °F 82% 30.16 in 10.0 mi NNW 18.4 mph 28.8 mph 0.00 in   Overcast
10:01 AM 35.1 °F 25.5 °F 30.9 °F 85% 30.16 in 10.0 mi NNW 15.0 mph 26.5 mph 0.00 in Snow Light Snow
10:10 AM 35.1 °F 25.5 °F 30.9 °F 85% 30.17 in 9.0 mi North 15.0 mph 23.0 mph 0.00 in Snow Light Snow
10:23 AM 35.1 °F 25.5 °F 30.9 °F 85% 30.17 in 9.0 mi NNW 15.0 mph 24.2 mph 0.00 in Snow Light Snow
10:37 AM 35.1 °F 24.5 °F 30.0 °F 82% 30.17 in 9.0 mi NNW 18.4 mph 26.5 mph 0.00 in Snow Light Snow
10:54 AM 34.0 °F 23.4 °F 30.0 °F 85% 30.18 in 2.5 mi NNW 17.3 mph - 0.00 in Snow Light Snow
11:04 AM 34.0 °F 24.6 °F 30.0 °F 85% 30.17 in 2.5 mi North 13.8 mph - 0.00 in Snow Light Snow
11:27 AM 34.0 °F 26.6 °F 30.9 °F 89% 30.17 in 2.5 mi North 9.2 mph - 0.01 in   Overcast
11:54 AM 35.1 °F 26.4 °F 30.0 °F 82% 30.17 in 2.5 mi NNW 12.7 mph - 0.01 in   Overcast
12:01 PM 34.0 °F 23.4 °F 30.0 °F 85% 30.17 in 10.0 mi NW 17.3 mph - N/A   Overcast
12:54 PM 36.0 °F 26.7 °F 27.0 °F 70% 30.17 in 10.0 mi NW 15.0 mph 21.9 mph N/A   Overcast
1:54 PM 36.0 °F 25.3 °F 21.0 °F 55% 30.18 in 10.0 mi NW 19.6 mph - N/A   Overcast
2:54 PM 36.0 °F 27.1 °F 19.0 °F 50% 30.20 in 10.0 mi NW 13.8 mph 23.0 mph N/A   Mostly Cloudy
3:54 PM 36.0 °F 25.6 °F 16.0 °F 44% 30.21 in 10.0 mi NNW 18.4 mph - N/A   Clear
4:54 PM 35.1 °F 25.2 °F 16.0 °F 46% 30.23 in 10.0 mi NNW 16.1 mph - N/A   Clear
5:54 PM 35.1 °F 26.4 °F 17.1 °F 48% 30.26 in 10.0 mi NNW 12.7 mph - N/A   Clear
6:54 PM 35.1 °F 24.8 °F 17.1 °F 48% 30.27 in 10.0 mi NNW 17.3 mph - N/A   Clear
7:54 PM 34.0 °F 23.4 °F 16.0 °F 48% 30.28 in 10.0 mi NNW 17.3 mph 25.3 mph N/A   Clear
8:54 PM 34.0 °F 24.6 °F 14.0 °F 44% 30.31 in 10.0 mi NNW 13.8 mph - N/A   Clear
9:54 PM 33.1 °F 23.9 °F 15.1 °F 48% 30.32 in 10.0 mi NNW 12.7 mph - N/A   Clear
10:54 PM 30.9 °F 22.8 °F 16.0 °F 54% 30.32 in 10.0 mi NNW 9.2 mph - N/A   Clear
11:54 PM 30.0 °F 20.0 °F 15.1 °F 54% 30.32 in 10.0 mi NNW 12.7 mph - N/A   Clear